Location: Barrio de Canyet
(41.4665°N, 2.2381°E)
Time: 02:20:39
(UTC+00:00)

NOSS 3-4 (A) - Pass Details

Date: 09 April 2020
Orbit: 892 x 1320 km, 63.4° (Epoch: 01 June)

Event Time Altitude Azimuth Distance (km) Brightness Sun altitude
Rises 19:25:58 0° 325° (NW) 3,850 7.7 -11.7°
Reaches altitude 10° 19:28:31 10° 326° (NW) 2,951 6.9 -12.1°
Maximum altitude 19:35:38 84° 54° (NE) 1,190 3.9 -13.4°
Enters shadow 19:42:34 14° 144° (SE) 2,927 5.5 -14.5°
